Location: Lombard
(41.8800°N, 88.0080°W)
Time: 23:46:11
(UTC-05:00)

Tiros 1 - Pass Details

Date: 30 January 2023
Orbit: 628 x 662 km, 48.4° (Epoch: 20 March)

Event Time Altitude Azimuth Distance (km) Brightness Sun altitude
Rises 23:49:40 0° 193° (SSW) 2,894 - -65.3°
Reaches altitude 10° 23:52:40 10° 173° (S) 1,994 - -65.4°
Maximum altitude 23:55:36 17° 133° (SE) 1,594 - -65.5°
Drops below altitude 10° 23:58:33 10° 93° (E) 2,010 - -65.5°
Sets 00:01:34 0° 73° (ENE) 2,928 - -65.5°
